Date,TemperatureHighF,TemperatureAvgF,TemperatureLowF,DewpointHighF,DewpointAvgF,DewpointLowF,HumidityHigh,HumidityAvg,HumidityLow,PressureMaxIn,PressureMinIn,WindSpeedMaxMPH,WindSpeedAvgMPH,GustSpeedMaxMPH,PrecipitationSumIn
2013-1-1,31.5,20.9,7.3,21.4,4.4,-10.9,78,49,34,29.41,29.14,12,2,12,0.00
2013-1-2,20.1,6.5,-6.0,1.5,-12.1,-24.7,54,41,38,29.59,29.38,10,2,14,0.00
2013-1-3,21.6,2.6,-12.3,2.0,-15.9,-30.2,47,41,39,29.65,29.44,4,1,4,0.00
2013-1-4,35.1,11.9,-3.3,17.5,-4.7,-20.8,62,46,42,29.44,29.26,0,0,0,0.00
2013-1-5,30.9,20.8,10.4,8.6,1.6,-5.1,49,43,37,29.74,29.59,0,0,0,0.00
2013-1-6,32.4,20.0,9.7,14.4,6.3,-5.6,73,55,46,29.74,29.41,0,0,0,0.00
2013-1-7,29.1,20.5,1.6,21.0,7.2,-12.4,83,57,39,29.88,29.47,0,0,0,0.00
2013-1-8,32.4,12.2,-2.7,14.7,-0.6,-16.5,70,56,47,29.88,29.74,0,0,0,0.00
2013-1-9,40.1,19.5,4.6,27.4,10.5,-3.0,87,68,47,29.94,29.41,0,0,0,0.00
2013-1-10,41.0,37.3,25.9,29.3,19.3,12.6,76,48,41,30.00,29.44,0,0,0,0.00
2013-1-11,38.1,28.7,16.9,27.7,17.3,10.0,84,63,47,30.03,29.76,0,0,0,0.00
2013-1-12,40.6,34.7,32.0,34.0,31.3,27.7,96,88,76,29.76,29.65,0,0,0,0.00
2013-1-13,39.9,35.1,32.9,36.0,33.5,32.3,98,94,82,29.74,29.47,0,0,0,0.00
2013-1-14,53.1,38.4,30.0,48.5,29.6,17.8,98,75,39,29.74,29.38,0,0,0,0.00
2013-1-15,39.9,31.4,25.5,25.7,17.5,10.9,78,57,40,29.82,29.74,0,0,0,0.00
2013-1-16,32.5,28.0,25.3,25.2,21.6,15.6,90,77,63,29.76,29.32,0,0,0,0.00
2013-1-17,37.8,23.9,13.5,29.5,12.2,-24.5,93,64,12,29.62,29.29,0,0,0,0.00
2013-1-18,16.0,8.5,-2.0,-4.1,-10.8,-22.4,44,40,35,29.91,29.62,0,0,0,0.00
2013-1-19,29.7,18.2,-1.3,18.5,4.2,-21.8,80,55,36,29.85,29.38,0,0,0,0.00
2013-1-20,44.6,27.2,12.2,32.5,14.5,1.0,86,62,37,29.41,29.00,0,0,0,0.00
2013-1-21,25.2,15.6,1.9,0.9,-3.7,-14.9,50,42,34,29.56,29.38,0,0,0,0.00
2013-1-22,25.7,12.3,0.7,6.8,-4.9,-20.0,61,46,34,29.56,29.32,0,0,0,0.00
2013-1-23,5.0,-3.9,-16.6,-16.1,-24.1,-35.6,36,36,36,29.65,29.53,0,0,0,0.00
2013-1-24,14.2,-1.6,-20.0,-7.3,-21.8,-38.7,37,36,36,29.62,29.47,0,0,0,0.00
2013-1-25,20.8,6.7,-7.8,0.7,-13.2,-27.3,46,38,37,29.74,29.59,0,0,0,0.00
2013-1-26,18.5,11.8,3.2,-4.8,-9.6,-16.2,39,37,34,29.65,29.53,0,0,0,0.00
2013-1-27,24.4,13.8,1.2,0.1,-8.7,-20.0,42,35,33,29.94,29.62,5,1,5,0.00
2013-1-28,23.7,11.0,-3.6,9.8,-5.9,-24.4,71,47,35,29.94,29.62,5,2,5,0.00
2013-1-29,35.2,21.2,2.8,24.1,12.8,-3.8,82,70,53,29.74,29.62,3,0,3,0.00
2013-1-30,35.6,33.5,28.9,34.7,32.0,24.1,98,94,82,29.68,29.00,5,1,6,0.00
2013-1-31,51.8,38.8,26.1,51.3,28.3,6.5,98,70,36,29.03,28.38,25,4,25,1.37
2013-2-1,28.6,21.4,10.9,6.5,1.7,-4.6,49,42,35,29.56,29.03,17,3,17,0.00
2013-2-2,27.0,14.8,3.2,8.0,-0.7,-11.6,67,50,41,29.74,29.56,8,1,9,0.00
2013-2-3,28.9,18.2,5.0,11.3,4.5,-3.9,73,56,42,29.59,29.26,5,1,5,0.00
2013-2-4,27.1,18.7,10.4,13.3,1.6,-10.7,73,48,35,29.41,29.20,13,3,15,0.00
2013-2-5,22.8,10.7,-2.2,-0.4,-10.3,-22.1,40,37,35,29.59,29.41,5,1,6,0.00
2013-2-6,37.0,21.0,10.8,16.9,4.2,-11.1,64,48,34,29.79,29.47,8,1,8,0.00
2013-2-7,23.0,12.7,6.1,-0.9,-9.6,-15.1,38,35,33,30.06,29.79,7,1,10,0.00
2013-2-8,19.0,14.2,9.1,9.8,-0.6,-12.9,81,53,35,30.06,29.53,10,1,10,0.00
2013-2-9,19.4,16.2,14.4,13.0,5.1,-2.1,84,63,45,29.68,29.35,17,5,18,0.00
2013-2-10,37.0,20.3,6.4,8.5,-1.7,-13.0,45,38,30,29.88,29.68,10,2,11,0.00
2013-2-11,24.6,16.4,1.9,19.2,4.9,-14.5,82,61,45,29.88,29.14,4,0,4,0.00
2013-2-12,47.3,33.9,22.8,31.6,22.9,18.5,91,66,40,29.32,29.09,13,2,13,0.00
2013-2-13,42.8,32.3,24.1,23.0,17.7,12.8,76,56,39,29.35,29.26,6,1,6,0.00
2013-2-14,39.2,30.4,22.5,19.9,15.1,10.4,66,54,40,29.53,29.26,6,1,6,0.00
2013-2-15,48.2,31.3,20.3,24.7,17.6,12.7,75,58,39,29.53,29.38,6,1,6,0.00
2013-2-16,41.0,31.1,24.8,27.0,16.2,2.2,77,55,38,29.47,29.32,3,0,3,0.00
2013-2-17,24.8,21.0,16.5,3.5,0.6,-4.7,47,40,35,29.32,28.79,0,0,0,0.00
2013-2-18,29.3,19.2,8.2,5.0,-2.8,-13.2,43,37,30,29.56,29.00,0,0,0,0.00
2013-2-19,43.0,23.6,4.3,26.2,3.6,-16.8,79,44,28,29.65,29.12,0,0,0,0.00
2013-2-20,40.5,31.7,24.6,30.3,21.8,9.6,87,68,43,29.17,29.00,0,0,0,0.00
2013-2-21,30.0,23.8,11.5,13.7,7.7,-0.4,63,50,41,29.74,29.17,0,0,0,0.00
2013-2-22,42.4,30.8,23.5,19.1,13.9,9.8,62,50,38,29.91,29.74,0,0,0,0.00
2013-2-23,36.7,29.5,24.1,27.2,20.4,13.3,87,69,56,29.85,29.53,2,0,2,0.00
2013-2-24,39.9,32.1,28.6,30.6,27.3,25.0,90,83,66,29.53,29.32,4,0,4,0.00
2013-2-25,47.1,33.4,24.3,32.6,27.5,21.6,92,80,52,29.71,29.44,5,0,5,0.00
2013-2-26,47.1,38.0,30.2,33.5,26.2,21.6,92,64,42,29.85,29.74,4,0,4,0.00
2013-2-27,36.1,31.7,27.1,31.8,28.4,23.0,94,88,80,29.76,29.26,3,0,4,0.00
2013-2-28,47.3,35.9,30.7,36.2,31.3,29.2,96,84,64,29.26,29.09,5,0,6,0.00
2013-3-1,39.7,34.8,28.9,32.3,25.8,20.5,95,71,52,29.20,29.09,9,1,9,0.00
2013-3-2,45.9,36.1,31.5,24.0,21.6,18.5,73,56,40,29.20,29.14,8,2,13,0.00
2013-3-3,46.9,36.4,31.5,26.1,21.4,18.8,71,55,40,29.20,29.09,13,2,13,0.00
2013-3-4,41.4,32.7,28.6,21.8,17.9,14.5,68,55,40,29.29,29.06,15,3,15,0.00
2013-3-5,48.0,37.5,30.7,29.6,22.0,16.9,79,54,40,29.65,29.29,12,2,13,0.00
2013-3-6,42.3,35.0,31.5,31.1,26.3,20.9,89,71,51,29.79,29.65,7,2,8,0.00
2013-3-7,38.5,33.6,30.4,21.3,18.6,17.1,66,54,44,29.76,29.62,9,2,12,0.00
2013-3-8,50.4,39.0,32.4,21.4,16.8,13.0,56,41,29,29.76,29.59,8,2,11,0.00
2013-3-9,54.5,36.0,19.6,21.9,14.7,7.9,64,44,26,29.91,29.71,6,2,10,0.00
2013-3-10,49.3,33.3,18.5,24.7,19.3,11.6,75,58,37,29.94,29.79,8,2,8,0.00
2013-3-11,55.6,39.7,30.4,30.5,25.8,21.2,79,59,36,29.79,29.62,6,1,6,0.00
2013-3-12,43.0,38.8,32.0,40.4,35.6,23.7,98,88,68,29.65,29.26,6,1,7,2.08
2013-3-13,49.1,40.5,27.9,39.0,28.7,19.8,98,65,43,29.29,29.23,8,2,10,0.03
2013-3-14,39.7,28.7,17.1,25.7,12.7,-1.2,86,53,40,29.32,29.17,13,3,13,0.00
2013-3-15,40.5,24.4,9.0,15.6,5.5,-8.1,64,45,34,29.32,29.12,12,2,12,0.00
2013-3-16,36.9,28.0,20.5,12.9,8.1,1.7,61,43,33,29.41,29.17,10,2,11,0.00
2013-3-17,30.4,19.4,9.0,9.6,-0.2,-7.4,67,43,32,29.79,29.41,10,2,14,0.00
2013-3-18,39.7,22.8,3.7,10.9,-0.2,-16.2,48,36,30,29.97,29.76,6,1,6,0.00
2013-3-19,34.5,27.1,23.0,23.7,17.5,7.6,80,68,43,29.76,29.29,6,1,7,0.00
2013-3-20,43.0,28.5,16.0,29.9,17.7,10.9,86,66,39,29.29,29.12,10,1,11,0.00
2013-3-21,43.5,27.4,9.1,17.2,11.7,2.0,76,54,32,29.29,29.12,8,2,8,0.00
2013-3-22,42.8,31.9,21.7,18.8,11.4,6.7,54,43,32,29.20,29.12,9,2,10,0.00
2013-3-23,41.7,32.0,20.7,18.9,13.3,6.2,59,46,39,29.23,29.06,13,3,21,0.00
2013-3-24,46.4,36.2,24.6,22.2,17.6,15.1,68,47,37,29.35,29.23,14,3,16,0.00
2013-3-25,48.4,34.9,18.9,27.4,19.7,12.3,78,56,38,29.32,29.14,8,2,8,0.00
2013-3-26,50.5,38.3,29.3,22.5,17.7,13.6,58,44,31,29.29,29.14,11,2,13,0.00
2013-3-27,50.7,37.4,25.9,28.1,21.9,15.0,76,55,36,29.44,29.29,12,2,15,0.00
2013-3-28,52.3,41.2,31.3,33.5,27.4,21.9,87,60,38,29.53,29.44,6,2,9,0.00
2013-3-29,53.4,40.8,31.1,32.1,25.2,19.2,80,56,36,29.56,29.50,10,2,16,0.00
2013-3-30,55.0,39.1,26.8,29.7,19.5,8.0,80,50,25,29.65,29.50,10,2,10,0.00
2013-3-31,58.3,37.3,19.8,24.5,18.2,11.1,74,49,26,29.65,29.38,11,2,11,0.00
2013-4-1,53.8,40.5,31.3,39.5,28.4,9.8,86,64,40,29.38,29.03,14,2,14,0.00
2013-4-2,38.8,30.5,24.4,14.5,10.1,7.6,52,42,35,29.35,29.23,10,3,13,0.00
2013-4-3,48.9,34.1,25.9,16.2,10.2,6.0,60,37,27,29.59,29.35,15,3,20,0.00
2013-4-4,59.4,38.5,25.5,23.4,11.9,4.0,46,34,25,29.74,29.47,11,2,14,0.00
2013-4-5,58.1,39.1,26.6,27.5,18.5,11.1,64,45,27,29.47,29.20,11,2,15,0.00
2013-4-6,47.1,30.5,22.1,17.1,7.2,0.9,61,38,25,29.85,29.38,17,4,18,0.00
2013-4-7,58.3,37.5,21.4,26.6,16.7,4.8,59,44,28,29.85,29.44,9,2,11,0.00
2013-4-8,63.1,48.3,34.5,32.0,26.2,20.4,63,43,29,29.68,29.44,12,2,15,0.00
2013-4-9,57.0,41.0,34.3,43.0,33.8,23.1,89,76,50,29.65,29.47,5,1,5,0.00
2013-4-10,57.2,44.2,35.8,44.4,36.3,32.4,96,76,46,29.56,29.44,5,1,6,0.00
2013-4-11,52.5,42.1,33.6,37.2,22.9,10.0,94,52,27,29.74,29.41,11,2,11,0.00
2013-4-12,36.0,33.4,32.2,29.1,20.3,12.4,87,60,41,29.82,29.44,4,0,5,0.00
2013-4-13,53.2,39.6,31.8,34.2,31.2,29.1,92,74,48,29.47,29.32,5,1,6,0.00
2013-4-14,54.5,40.8,30.9,39.8,29.8,20.3,95,68,36,29.74,29.44,10,1,13,0.00
2013-4-15,66.2,42.6,25.2,33.2,26.0,20.7,87,57,27,29.91,29.74,12,2,12,0.00
2013-4-16,57.7,44.1,28.6,51.0,35.5,23.2,97,74,40,29.91,29.47,9,1,10,0.00
2013-4-17,65.3,49.2,31.5,49.3,28.4,17.9,97,48,25,29.88,29.50,11,3,13,0.00
2013-4-18,57.6,42.6,27.0,31.0,24.8,19.4,78,52,32,30.03,29.65,7,2,11,0.00
2013-4-19,79.7,61.8,45.5,58.1,46.6,30.0,78,59,36,29.65,29.09,11,3,14,0.00
2013-4-20,64.0,52.4,38.7,59.0,33.3,15.7,91,52,27,29.71,29.09,14,3,15,0.00
2013-4-21,59.7,40.3,26.8,23.4,15.2,9.7,55,36,24,30.24,29.71,10,3,13,0.00
2013-4-22,61.9,38.6,22.8,25.7,16.8,11.4,68,44,24,30.36,30.15,8,2,12,0.00
2013-4-23,46.0,37.0,24.4,35.5,25.2,15.1,83,63,49,30.18,29.76,4,1,6,0.00
2013-4-24,81.7,56.0,40.3,49.4,42.9,35.5,87,66,31,29.76,29.23,10,2,10,0.00
2013-4-25,68.4,51.5,32.0,45.4,30.5,18.1,93,49,23,29.82,29.26,13,3,22,0.00
2013-4-26,70.9,44.8,26.1,33.3,24.7,18.9,77,49,24,29.94,29.82,8,2,8,0.00
2013-4-27,70.2,48.9,30.6,36.0,29.0,23.9,82,51,25,29.97,29.76,7,1,8,0.00
2013-4-28,76.5,51.1,29.3,38.1,29.8,23.0,86,50,22,29.88,29.71,10,2,12,0.00
2013-4-29,76.6,52.3,33.1,41.6,32.4,25.5,79,51,24,29.79,29.65,10,2,12,0.00
2013-4-30,80.8,53.3,32.0,40.5,32.2,23.9,86,51,21,29.88,29.76,9,2,10,0.00
2013-5-1,86.4,56.2,32.2,39.3,31.6,25.3,81,46,19,29.97,29.85,11,2,11,0.00
2013-5-2,78.4,53.1,35.2,41.7,33.0,24.4,80,50,25,30.06,29.88,10,2,11,0.00
2013-5-3,81.9,51.6,29.5,45.1,33.3,23.9,85,55,24,30.12,29.85,6,2,8,0.00
2013-5-4,84.4,53.8,34.5,43.9,34.1,26.5,91,54,19,29.94,29.74,7,2,8,0.00
2013-5-5,86.0,53.6,29.5,39.9,32.5,23.8,84,51,19,29.85,29.68,8,2,9,0.00
2013-5-6,90.1,56.3,33.1,41.7,35.2,26.0,82,51,18,29.82,29.59,10,2,11,0.00
2013-5-7,97.0,60.1,38.8,49.9,38.9,29.9,83,53,17,29.71,29.53,11,2,11,0.00
2013-5-8,81.0,61.9,44.6,56.5,47.6,36.8,87,62,33,29.74,29.62,10,2,11,0.00
2013-5-9,72.9,61.2,56.7,59.8,56.9,55.0,96,86,58,29.62,29.41,5,0,6,0.00
2013-5-10,73.9,62.6,52.5,64.6,57.0,51.4,98,83,57,29.47,29.41,5,0,5,0.00
2013-5-11,57.6,56.0,55.0,56.0,54.5,53.1,96,95,92,29.41,29.26,3,0,3,0.00
2013-5-12,70.7,59.9,43.3,62.4,46.5,30.5,97,63,38,29.26,29.06,11,2,11,0.00
2013-5-13,61.2,47.7,37.8,32.4,28.6,24.0,69,49,32,29.56,29.26,10,2,10,0.00
2013-5-14,61.7,46.0,31.1,29.3,25.1,21.5,78,47,26,29.56,29.44,12,2,14,0.00
2013-5-15,70.5,48.1,28.9,46.1,33.5,22.2,87,61,29,29.53,29.17,10,2,10,0.00
2013-5-16,77.4,59.5,48.4,56.2,41.8,32.9,93,59,22,29.35,29.09,14,2,16,0.00
2013-5-17,68.2,55.5,45.1,38.7,33.9,30.2,64,45,29,29.74,29.35,13,2,13,0.00
2013-5-18,72.9,54.7,38.3,43.6,38.2,31.9,83,57,29,29.85,29.71,6,1,8,0.00
2013-5-19,65.1,52.8,39.4,48.5,43.3,33.1,89,71,50,29.88,29.74,7,1,7,0.17
2013-5-20,77.9,59.9,50.5,62.8,51.8,47.8,95,78,38,29.74,29.44,7,1,8,0.29
2013-5-21,57.9,53.9,50.9,56.5,51.6,47.1,97,92,83,29.62,29.50,5,0,6,0.54
2013-5-22,60.4,54.6,50.2,55.1,52.2,49.6,98,92,78,29.56,29.44,6,0,6,0.25
2013-5-23,72.7,60.8,50.9,65.7,57.3,50.3,98,89,68,29.47,29.26,6,1,9,0.04
2013-5-24,69.6,60.7,48.9,67.1,56.2,41.0,98,86,63,29.38,29.17,13,2,16,1.41
2013-5-25,51.6,47.0,41.5,47.0,42.0,35.7,92,83,68,29.38,29.23,12,3,17,0.62
2013-5-26,54.5,47.3,41.4,37.5,33.6,29.5,85,60,46,29.50,29.20,12,3,17,0.08
2013-5-27,68.5,51.7,34.3,42.3,31.7,28.5,85,51,25,29.68,29.50,16,2,16,0.00
2013-5-28,77.7,56.0,35.1,44.5,37.1,29.2,84,54,26,29.76,29.59,10,1,10,0.00
2013-5-29,58.3,52.8,46.8,53.8,47.9,38.6,95,83,66,29.71,29.50,2,0,2,0.13
2013-5-30,89.4,69.2,54.9,66.0,56.2,51.4,98,69,30,29.56,29.41,8,1,10,0.04
2013-5-31,94.6,74.1,55.2,67.0,58.5,51.5,92,63,29,29.62,29.32,10,1,10,0.00
2013-6-1,96.3,74.5,59.4,68.7,60.2,54.6,90,66,27,29.44,29.26,10,1,13,0.04
2013-6-2,95.4,74.7,61.9,70.9,64.1,58.3,93,74,36,29.32,29.09,11,2,23,0.00
2013-6-3,83.3,72.0,54.3,65.3,52.6,45.5,73,52,32,29.32,29.14,6,2,10,0.00
2013-6-4,68.0,57.9,46.0,47.4,39.2,33.0,84,53,33,29.56,29.32,12,2,17,0.00
2013-6-5,77.4,62.0,48.4,40.4,36.1,31.4,64,40,23,29.65,29.53,8,2,12,0.05
2013-6-6,74.7,60.3,49.1,47.4,41.7,38.1,73,53,32,29.71,29.59,5,1,6,0.00
2013-6-7,60.3,55.8,52.0,53.8,49.8,45.4,94,81,61,29.62,29.47,6,0,6,0.66
2013-6-8,73.8,61.7,52.2,57.7,53.2,50.5,96,76,50,29.47,29.20,8,1,11,0.70
2013-6-9,79.5,65.5,54.0,59.7,52.5,46.2,94,67,34,29.68,29.47,9,1,9,0.00
2013-6-10,76.3,62.6,48.7,55.4,51.5,44.4,89,69,43,29.74,29.56,6,1,6,0.00
2013-6-11,62.4,57.9,55.6,58.5,54.4,50.9,94,88,74,29.56,29.12,4,0,4,1.12
2013-6-12,65.1,59.6,54.7,54.2,50.9,47.0,97,74,56,29.32,29.09,10,2,11,0.08
2013-6-13,72.7,61.1,47.8,55.7,50.5,44.0,93,70,46,29.32,29.20,6,1,6,0.00
2013-6-14,79.7,64.8,52.9,57.0,48.7,41.7,94,62,27,29.26,29.12,8,1,11,0.00
2013-6-15,81.0,65.2,52.2,49.2,38.2,32.7,80,39,24,29.44,29.26,11,2,11,0.00
2013-6-16,81.1,61.3,46.6,58.1,49.6,40.1,91,68,35,29.50,29.23,6,1,7,0.05
2013-6-17,81.1,63.2,52.0,62.2,57.0,49.8,96,82,36,29.41,29.26,8,1,10,0.08
2013-6-18,72.3,60.5,50.2,59.7,53.0,47.8,97,78,49,29.53,29.41,5,0,5,0.00
2013-6-19,77.5,59.9,44.2,53.6,42.1,36.2,94,58,26,29.65,29.44,10,2,10,0.00
2013-6-20,82.8,61.4,42.3,50.4,44.2,36.5,84,57,30,29.74,29.59,8,1,8,0.00
2013-6-21,85.1,64.0,47.8,58.1,50.3,42.3,85,64,31,29.74,29.59,5,0,6,0.04
2013-6-22,81.1,66.3,53.4,66.3,57.6,48.5,93,75,45,29.71,29.59,4,0,4,0.04
2013-6-23,81.5,69.4,63.3,69.6,65.7,62.0,97,89,63,29.62,29.41,4,0,5,0.79
2013-6-24,92.7,75.6,66.4,74.2,66.3,60.4,98,76,35,29.47,29.29,6,1,6,0.00
2013-6-25,91.0,74.3,62.8,70.7,65.5,59.5,94,76,47,29.35,29.17,8,0,8,0.16
2013-6-26,78.4,70.5,63.7,71.3,66.6,61.2,97,88,71,29.32,29.20,6,0,6,0.00
2013-6-27,73.2,65.4,60.1,65.1,61.6,58.9,97,88,71,29.35,29.26,4,0,4,0.09
2013-6-28,66.4,62.0,58.8,63.7,60.8,57.9,98,96,88,29.32,29.03,3,0,3,1.16
2013-6-29,82.2,67.8,62.6,72.7,65.4,60.0,98,93,68,29.20,29.00,8,0,17,0.87
2013-6-30,84.9,72.0,61.2,71.6,65.8,60.6,98,83,56,29.38,29.17,6,1,6,0.00
2013-7-1,83.5,72.9,64.9,70.6,67.5,63.5,97,84,62,29.56,29.38,4,0,5,0.29
2013-7-2,69.6,64.1,60.4,68.4,62.1,59.0,98,94,86,29.71,29.56,4,0,4,1.20
2013-7-3,86.7,70.6,60.1,72.8,65.5,59.5,98,85,59,29.68,29.50,4,0,6,0.00
2013-7-4,93.9,78.4,67.3,74.2,69.8,65.8,97,77,48,29.62,29.44,5,0,6,0.00
2013-7-5,94.5,78.1,66.0,72.9,67.9,63.1,97,74,38,29.59,29.41,6,0,6,0.00
2013-7-6,92.5,78.1,68.9,72.7,67.8,62.2,94,74,39,29.50,29.35,6,1,6,0.00
2013-7-7,90.9,81.2,71.6,72.2,68.0,64.2,86,66,43,29.38,29.32,5,0,5,0.00
2013-7-8,75.7,70.1,67.6,71.8,67.7,65.8,98,92,86,29.53,29.35,4,0,6,0.41
2013-7-9,75.4,69.6,66.7,69.8,67.4,66.2,98,93,79,29.56,29.50,4,0,5,0.05
2013-7-10,68.0,66.5,64.8,67.1,65.7,64.2,98,97,94,29.53,29.26,4,0,4,0.70
2013-7-11,83.1,70.7,61.7,73.5,65.1,55.7,98,84,48,29.44,29.23,6,0,6,0.38
2013-7-12,84.2,68.8,55.0,62.0,57.9,53.4,97,72,41,29.68,29.44,7,1,7,0.00
2013-7-13,84.0,70.6,56.8,64.0,59.6,54.5,95,71,38,29.76,29.68,6,1,6,0.00
2013-7-14,90.9,74.3,60.6,70.8,65.4,58.3,94,76,47,29.74,29.59,6,0,6,0.00
2013-7-15,94.3,77.0,62.1,71.6,61.7,56.3,96,65,30,29.65,29.47,8,1,10,0.00
2013-7-16,93.9,78.1,65.7,70.1,61.7,55.3,89,62,31,29.59,29.50,9,1,10,0.00
2013-7-17,96.8,77.5,63.1,71.2,65.2,59.5,90,69,36,29.62,29.35,6,0,8,0.12
2013-7-18,75.0,70.6,66.9,71.5,68.4,65.1,96,93,87,29.47,29.38,4,0,4,0.33
2013-7-19,95.0,80.6,71.2,77.1,70.0,57.8,97,73,41,29.38,29.06,12,1,14,0.00
2013-7-20,92.3,76.4,66.4,71.5,64.4,53.2,91,68,39,29.26,29.03,10,1,10,0.00
2013-7-21,84.6,70.4,59.9,62.1,58.8,55.1,90,69,42,29.47,29.26,5,0,8,0.00
2013-7-22,75.4,67.1,58.6,64.2,60.1,56.0,92,79,57,29.50,29.38,4,0,6,0.00
2013-7-23,73.8,66.0,61.3,68.5,63.4,59.6,96,91,81,29.38,29.00,3,0,3,1.16
2013-7-24,80.4,67.2,55.9,70.5,56.9,41.1,98,73,40,29.44,29.06,10,2,14,0.00
2013-7-25,77.4,62.3,47.8,57.7,50.0,41.8,87,66,42,29.59,29.44,6,1,6,0.00
2013-7-26,75.6,66.9,61.3,61.4,58.2,54.7,90,75,51,29.59,29.41,8,1,8,0.00
2013-7-27,87.4,70.9,58.5,64.4,59.3,56.1,95,70,39,29.50,29.41,6,1,7,0.00
2013-7-28,80.6,68.4,56.5,66.3,61.3,53.9,94,79,56,29.50,29.44,7,0,7,0.04
2013-7-29,84.4,70.2,64.8,69.3,65.3,61.5,98,86,55,29.53,29.41,7,1,8,0.17
2013-7-30,80.2,67.8,57.0,64.7,55.1,44.6,98,69,32,29.56,29.44,7,1,9,0.00
2013-7-31,84.0,66.0,51.4,59.6,54.4,48.6,93,69,40,29.62,29.47,8,1,8,0.00
2013-8-1,80.6,65.4,52.7,63.0,56.5,49.8,94,75,48,29.50,29.32,6,1,6,0.04
2013-8-2,79.5,69.6,58.6,67.0,62.2,54.7,97,78,50,29.32,29.20,9,1,9,0.66
2013-8-3,77.5,63.3,53.4,64.8,55.3,48.3,98,78,38,29.32,29.20,7,1,7,0.04
2013-8-4,75.4,62.5,52.0,60.5,52.5,46.1,96,72,47,29.32,29.23,6,1,6,0.00
2013-8-5,73.4,60.3,49.6,52.3,43.6,34.8,87,58,31,29.50,29.32,13,2,14,0.00
2013-8-6,80.1,60.6,43.2,54.0,47.2,38.8,88,65,35,29.62,29.50,6,1,6,0.00
2013-8-7,81.1,63.4,47.3,59.5,52.0,43.6,92,69,42,29.68,29.53,9,1,9,0.00
2013-8-8,71.8,63.5,60.3,66.9,59.6,53.7,93,87,78,29.59,29.47,2,0,2,0.00
2013-8-9,73.4,69.1,63.7,72.4,68.0,63.1,98,96,92,29.47,29.20,5,0,5,1.57
2013-8-10,70.5,63.2,52.5,66.6,61.9,45.5,98,96,66,29.47,29.23,6,0,6,0.05
2013-8-11,67.1,52.6,46.9,54.6,47.5,43.6,93,83,60,29.53,29.47,6,1,6,0.00
2013-8-12,70.0,56.8,51.1,55.2,51.3,48.1,94,83,56,29.50,29.35,4,0,4,0.00
2013-8-13,67.8,62.2,55.4,64.8,59.0,51.3,98,89,77,29.38,29.17,4,0,4,0.83
2013-8-14,77.4,66.3,61.0,67.8,55.2,40.3,98,72,35,29.35,29.12,18,1,18,0.00
2013-8-15,73.2,59.2,49.8,52.3,49.5,46.4,89,72,44,29.56,29.44,4,0,4,0.00
2013-8-16,75.6,61.1,49.5,55.9,52.0,45.3,86,74,44,29.65,29.56,3,0,5,0.00
2013-8-17,80.4,64.4,52.7,60.1,52.3,46.5,95,69,33,29.74,29.65,6,0,6,0.00
2013-8-18,79.0,62.3,47.5,61.5,52.6,44.2,92,73,47,29.76,29.53,4,0,4,0.00
2013-8-19,79.5,68.9,61.7,58.4,56.6,53.3,83,67,42,29.44,29.38,3,1,5,0.00
2013-8-20,85.6,68.9,55.9,63.4,57.8,53.4,92,71,38,29.56,29.44,6,0,6,0.00
2013-8-21,88.3,70.3,55.9,65.4,59.6,53.2,93,72,40,29.62,29.44,5,1,7,0.00
2013-8-22,81.7,66.0,56.5,61.3,58.2,53.8,93,78,47,29.47,29.23,4,0,4,0.00
2013-8-23,77.2,68.3,52.7,60.0,47.4,39.1,68,49,31,29.62,29.23,11,2,11,0.00
2013-8-24,79.3,60.0,43.9,51.2,43.8,38.8,86,59,27,29.79,29.62,6,0,6,0.00
2013-8-25,81.1,60.5,42.6,54.8,47.3,38.1,90,65,36,29.85,29.62,3,0,3,0.00
2013-8-26,73.4,63.0,57.7,64.9,58.8,50.9,93,87,73,29.62,29.35,0,0,0,0.17
2013-8-27,86.5,69.0,59.9,67.8,61.9,58.3,97,81,39,29.38,29.29,2,0,2,0.00
2013-8-28,82.8,66.2,59.7,67.8,62.1,57.6,95,88,54,29.50,29.35,0,0,1,0.49
2013-8-29,67.6,63.6,61.3,64.8,61.9,60.4,98,94,85,29.59,29.47,0,0,0,0.08
2013-8-30,81.0,67.9,60.6,69.1,63.6,60.1,98,87,63,29.50,29.23,0,0,0,0.05
2013-8-31,82.0,71.0,64.9,70.6,66.8,64.1,98,88,62,29.29,29.23,3,0,3,0.00
2013-9-1,84.4,73.4,66.4,70.7,66.5,61.9,98,81,54,29.38,29.23,3,0,4,0.12
2013-9-2,70.3,68.0,66.2,68.5,67.1,65.4,98,97,94,29.35,29.23,1,0,3,3.86
2013-9-3,77.2,68.1,59.0,69.1,64.5,56.8,98,89,67,29.26,29.14,0,0,0,0.04
2013-9-4,80.1,64.5,53.4,63.4,54.5,46.7,98,74,33,29.35,29.23,5,0,5,0.00
2013-9-5,67.3,58.8,44.4,57.7,44.2,33.0,92,62,33,29.59,29.32,8,0,10,0.00
2013-9-6,70.2,51.9,37.0,46.2,40.0,33.5,91,67,36,29.71,29.50,4,0,6,0.00
2013-9-7,71.2,57.4,45.5,57.0,50.1,41.3,92,78,51,29.50,29.26,1,0,3,0.00
2013-9-8,63.5,56.9,44.1,58.3,45.5,33.0,97,69,37,29.56,29.20,12,1,17,0.21
2013-9-9,69.4,52.0,36.5,47.4,41.0,32.7,90,69,40,29.68,29.53,7,1,7,0.00
2013-9-10,65.7,55.9,44.1,59.4,51.6,40.9,93,86,74,29.59,29.50,3,0,3,0.04
2013-9-11,90.1,70.8,60.3,74.4,64.4,58.2,98,83,45,29.53,29.32,8,1,12,0.37
2013-9-12,80.1,70.1,65.3,72.5,67.3,64.4,98,91,72,29.38,29.12,6,0,8,0.58
2013-9-13,66.0,63.0,56.3,65.4,60.0,50.3,98,90,72,29.23,29.09,7,1,8,0.25
2013-9-14,65.7,57.5,47.1,56.1,49.6,43.3,94,77,49,29.50,29.20,8,1,9,0.21
2013-9-15,70.3,53.8,39.7,51.5,46.0,37.9,97,78,44,29.59,29.44,4,0,6,0.00
2013-9-16,62.4,54.0,44.6,57.6,43.4,26.8,96,70,41,29.74,29.44,13,1,15,0.00
2013-9-17,65.7,46.7,36.3,40.0,34.1,28.1,81,63,35,29.88,29.74,6,1,6,0.00
2013-9-18,72.1,50.9,34.9,48.7,40.3,31.4,93,71,36,29.79,29.59,4,1,5,0.00
2013-9-19,75.6,54.6,38.5,52.8,45.0,35.2,94,73,41,29.62,29.47,4,1,6,0.00
2013-9-20,75.9,56.7,41.5,56.2,47.3,38.5,95,74,43,29.62,29.47,6,1,6,0.00
2013-9-21,72.0,57.8,45.1,60.1,52.3,42.0,95,83,52,29.50,29.20,6,1,8,0.04
2013-9-22,72.5,62.6,51.3,64.4,52.7,35.4,98,73,40,29.26,29.06,8,2,8,1.12
2013-9-23,53.2,49.3,46.4,37.9,33.4,30.1,64,54,47,29.44,29.26,12,2,14,0.00
2013-9-24,60.1,50.0,42.3,38.5,35.5,32.6,80,58,39,29.44,29.32,10,2,13,0.00
2013-9-25,61.5,48.8,40.5,48.6,39.5,35.4,91,72,47,29.50,29.38,9,1,13,0.04
2013-9-26,65.8,50.1,36.5,48.4,40.7,33.5,95,73,44,29.68,29.50,6,1,9,0.00
2013-9-27,71.6,57.0,46.6,52.5,47.3,42.2,88,72,42,29.76,29.65,6,0,6,0.00
2013-9-28,72.3,54.1,41.0,56.0,44.7,38.2,96,74,41,29.85,29.74,5,0,6,0.00
2013-9-29,70.3,52.6,40.5,53.4,44.1,37.8,94,75,43,29.76,29.59,6,0,6,0.00
2013-9-30,63.7,46.8,39.2,51.6,42.4,36.0,94,85,58,29.62,29.47,4,0,5,0.00
2013-10-1,75.4,56.2,41.0,57.8,44.3,38.7,98,70,33,29.47,29.29,8,1,9,0.00
2013-10-2,51.3,48.1,46.0,47.4,44.5,42.6,92,87,83,29.35,29.32,3,0,3,0.00
2013-10-3,50.2,48.6,46.9,41.9,41.0,39.8,76,75,73,29.56,29.53,2,0,2,0.00
2013-10-4,69.6,54.4,39.9,52.4,45.5,35.5,88,73,47,29.59,29.50,3,0,4,0.00
2013-10-5,65.7,56.6,46.4,52.6,47.0,41.2,91,72,41,29.65,29.56,4,0,5,0.00
2013-10-6,54.7,49.6,46.0,45.3,41.0,33.9,91,74,47,29.76,29.62,4,0,4,0.12
2013-10-7,62.2,53.1,47.8,61.7,51.9,45.3,98,95,91,29.71,29.23,7,0,8,0.67
2013-10-8,60.4,50.8,36.7,53.5,36.9,29.1,92,61,35,29.88,29.32,12,2,13,0.00
2013-10-9,61.9,43.8,31.1,43.5,33.6,27.1,91,70,39,30.00,29.85,5,1,8,0.00
2013-10-10,66.4,46.6,32.7,46.0,37.6,29.6,92,73,37,29.85,29.68,5,1,6,0.00
2013-10-11,68.4,51.7,40.6,50.8,42.7,37.4,92,74,44,29.71,29.62,4,0,4,0.00
2013-10-12,57.2,50.2,40.6,52.3,46.2,37.4,93,86,77,29.88,29.68,3,0,4,0.00
2013-10-13,58.1,53.0,50.4,51.3,48.4,46.4,95,85,69,29.94,29.85,4,0,4,0.00
2013-10-14,65.7,55.4,50.0,51.2,47.7,44.8,90,76,49,29.88,29.71,4,0,6,0.00
2013-10-15,56.5,49.3,44.4,53.0,46.7,42.0,96,91,86,29.79,29.74,2,0,3,0.00
2013-10-16,47.7,46.7,45.5,43.7,43.1,42.0,88,87,86,29.41,29.38,2,0,2,0.00
2013-10-17,68.2,53.3,45.1,52.9,45.0,39.8,96,76,38,29.38,29.23,6,1,9,0.00
2013-10-18,65.8,55.0,46.8,58.4,45.1,31.9,97,72,40,29.32,29.12,13,1,15,0.37
2013-10-19,63.7,50.0,37.0,42.7,37.5,31.3,84,64,42,29.41,29.20,7,1,7,0.00
2013-10-20,58.6,51.2,42.4,43.8,34.3,24.9,88,55,35,29.44,29.14,14,2,15,0.00
2013-10-21,61.3,45.0,31.1,38.4,32.3,24.1,79,62,40,29.59,29.44,7,1,7,0.00
2013-10-22,55.8,46.1,36.3,49.8,40.7,32.8,90,81,71,29.47,29.20,4,1,6,0.00
2013-10-23,54.5,40.3,30.7,38.4,30.2,24.7,95,70,41,29.29,29.12,5,1,6,0.00
2013-10-24,51.6,40.0,29.5,29.0,25.4,21.2,78,57,38,29.29,29.12,11,2,11,0.00
2013-10-25,46.8,37.9,30.9,32.3,23.0,16.6,77,56,38,29.59,29.29,7,1,9,0.00
2013-10-26,46.4,37.1,26.4,31.1,24.2,18.3,76,60,46,29.59,29.32,6,1,10,0.04
2013-10-27,53.2,41.9,34.3,35.8,26.8,18.7,79,57,38,29.50,29.26,8,2,9,0.00
2013-10-28,50.5,38.1,28.0,32.8,22.7,12.6,74,55,38,29.82,29.47,13,2,13,0.00
2013-10-29,45.0,29.5,19.6,21.0,15.0,11.2,74,56,38,29.94,29.82,5,1,6,0.00
2013-10-30,48.4,32.7,22.5,24.6,18.8,12.4,70,57,39,29.82,29.65,6,1,8,0.00
2013-10-31,42.4,34.0,24.4,38.0,27.5,17.4,91,77,58,29.71,29.26,3,0,4,0.38
2013-11-1,61.9,55.1,40.5,61.3,48.4,34.9,98,81,41,29.26,28.85,13,2,14,0.70
2013-11-2,63.9,49.5,36.9,43.8,36.1,27.0,85,61,39,29.29,29.09,8,2,12,0.00
2013-11-3,42.4,36.7,29.3,27.4,16.5,8.5,55,44,37,29.91,29.29,10,3,14,0.00
2013-11-4,39.9,29.1,21.7,15.8,10.5,6.3,60,46,35,30.18,29.91,6,1,6,0.00
2013-11-5,44.6,29.8,19.4,23.0,16.5,9.9,72,59,41,30.18,29.97,8,1,9,0.00
2013-11-6,53.2,39.5,25.7,37.3,29.0,19.1,78,66,52,29.97,29.44,7,1,8,0.00
2013-11-7,54.3,46.2,37.0,51.3,37.1,18.2,90,72,47,29.44,29.17,8,1,10,0.08
2013-11-8,43.3,36.5,27.3,24.5,18.0,14.4,69,47,39,29.50,29.26,12,2,17,0.00
2013-11-9,38.5,35.5,33.6,16.8,14.5,13.1,43,42,40,29.59,29.50,10,2,13,0.00
2013-11-11,42.4,38.0,32.9,25.5,23.0,20.4,69,55,45,29.50,29.32,8,1,8,0.00
2013-11-12,36.3,31.2,27.0,29.3,13.3,7.1,76,48,41,29.59,29.29,13,2,13,0.00
2013-11-13,31.5,24.2,16.9,10.4,6.6,3.4,57,47,40,29.71,29.56,9,1,13,0.00
2013-11-14,44.6,29.5,21.2,22.8,15.3,7.6,72,56,41,29.56,29.47,4,0,4,0.00
2013-11-15,45.7,30.9,22.1,29.5,20.7,15.7,80,67,43,29.68,29.56,3,0,4,0.00
2013-11-17,37.8,36.8,29.5,35.5,33.0,21.2,92,86,71,29.79,29.44,2,0,3,0.29
2013-11-18,55.6,45.6,37.6,52.2,36.3,23.7,98,73,42,29.44,29.00,12,2,12,0.62
2013-11-19,44.6,35.3,29.5,23.3,14.0,8.9,49,41,38,29.76,29.09,14,4,19,0.00
2013-11-20,37.4,29.0,20.3,10.9,7.6,3.8,52,40,31,30.15,29.76,12,2,15,0.00
2013-11-21,41.9,26.6,16.0,18.8,11.1,5.4,65,52,38,30.15,29.82,4,0,4,0.00
2013-11-22,37.6,31.7,25.3,29.9,22.9,12.6,88,70,57,29.82,29.29,0,0,0,0.00
2013-11-23,37.6,33.9,29.1,32.2,18.3,9.6,92,55,36,29.38,29.26,14,3,14,0.00
2013-11-24,29.3,19.7,17.1,10.1,-0.9,-2.9,44,40,37,29.59,29.26,21,5,25,0.00
2013-11-25,27.5,19.7,11.7,4.5,-0.4,-7.0,46,41,35,29.79,29.59,13,1,15,0.00
2013-11-26,33.6,28.0,23.2,24.6,16.8,4.5,81,63,43,29.79,29.65,2,0,3,0.04
2013-11-27,42.1,35.4,29.5,41.4,32.3,23.9,98,88,64,29.65,28.73,7,1,8,0.83
2013-11-28,35.4,24.9,12.9,26.8,9.6,0.1,77,52,36,29.88,28.85,18,3,18,0.00
2013-11-29,24.3,15.2,7.5,9.7,-0.1,-5.6,68,51,40,30.24,29.88,8,1,8,0.00
2013-11-30,25.7,16.3,3.4,11.1,1.0,-10.7,64,50,44,30.30,29.91,6,0,6,0.00
2013-12-1,36.0,30.8,24.3,26.0,18.9,10.4,80,61,54,29.91,29.59,2,0,3,0.00
2013-12-2,37.9,34.2,31.5,34.4,30.9,26.3,94,88,81,29.59,29.44,0,0,0,0.17
2013-12-3,38.7,34.7,30.9,36.5,30.6,21.7,97,86,59,29.44,29.38,6,0,6,0.00
2013-12-4,39.0,29.8,22.3,26.5,20.5,16.6,81,69,48,29.71,29.41,6,0,6,0.00
2013-12-5,32.9,29.9,22.6,31.6,26.3,17.7,95,86,79,29.76,29.38,0,0,0,0.12
2013-12-6,42.6,35.4,32.5,41.9,34.3,30.1,98,96,89,29.59,29.38,0,0,0,0.29
2013-12-7,33.3,29.8,22.8,30.4,17.6,4.0,95,63,41,29.88,29.56,8,1,10,0.00
2013-12-8,29.5,22.3,14.5,9.9,6.0,2.0,60,49,41,30.06,29.88,5,0,5,0.00
2013-12-9,25.3,22.9,19.9,19.9,14.1,8.0,80,69,54,30.00,29.35,0,0,0,0.00
2013-12-10,32.2,22.6,15.1,25.8,15.3,5.6,82,74,58,29.38,29.23,2,0,4,0.00
2013-12-11,28.6,20.0,10.9,15.0,8.3,0.5,73,61,44,29.62,29.38,12,0,12,0.00
2013-12-12,14.9,6.7,-0.9,3.2,-6.6,-17.1,62,54,44,29.74,29.50,1,0,2,0.00
2013-12-13,21.7,8.2,-2.0,5.0,-9.1,-18.1,62,44,41,29.88,29.41,11,0,13,0.00
2013-12-14,14.5,4.6,-6.9,-3.9,-13.0,-23.6,44,43,42,30.12,29.88,1,0,5,0.00
2013-12-15,26.6,17.0,8.4,23.6,8.0,-9.5,92,69,43,29.91,29.00,8,0,12,0.00
2013-12-16,18.3,9.9,-4.9,8.1,-3.6,-21.7,75,55,40,29.71,29.17,17,2,21,0.00
2013-12-17,12.9,-0.5,-18.6,-5.5,-17.6,-34.2,43,43,43,29.79,29.56,6,0,6,0.00
2013-12-18,31.5,18.5,9.5,17.2,5.4,-8.5,73,57,43,29.56,29.38,6,0,6,0.00
2013-12-19,30.4,19.0,8.8,18.3,10.4,1.0,80,69,58,29.59,29.44,4,0,4,0.00
2013-12-20,34.5,26.9,16.2,28.4,21.3,10.5,87,79,67,29.65,29.44,0,0,0,0.00
2013-12-21,39.2,34.2,30.0,32.4,30.0,27.5,90,85,72,29.47,29.35,0,0,0,0.04
2013-12-22,34.5,31.3,27.3,32.5,28.9,24.5,93,91,89,29.59,29.41,3,0,4,0.58
2013-12-23,34.0,30.6,27.5,33.1,29.0,25.4,98,93,91,29.62,29.50,0,0,0,0.04
2013-12-24,33.1,23.0,9.7,30.5,18.3,4.8,90,82,74,29.71,29.56,0,0,0,0.00
2013-12-25,18.1,9.0,4.5,8.8,2.0,-3.2,80,73,60,30.03,29.71,0,0,0,0.00
2013-12-26,20.5,11.4,1.8,13.4,4.0,-4.2,77,72,67,30.00,29.62,0,0,0,0.00
2013-12-27,30.0,16.2,2.8,22.2,9.8,-3.0,80,75,66,29.74,29.65,0,0,0,0.00
2013-12-28,32.7,17.8,5.4,25.8,12.5,0.0,87,79,72,29.68,29.47,0,0,0,0.04
2013-12-29,32.5,22.9,12.2,30.4,18.7,7.8,93,83,79,29.56,29.14,0,0,0,0.00
2013-12-30,32.7,25.7,8.6,31.8,19.2,-4.4,97,78,54,29.59,29.09,5,0,5,0.00
2013-12-31,-0.8,-2.3,-3.8,-13.0,-14.5,-15.9,55,55,55,29.62,29.59,2,0,2,0.00
2014-1-1,18.7,4.5,-8.5,4.2,-9.6,-20.5,59,51,45,29.88,29.62,11,1,13,0.00
2014-1-2,8.6,2.6,-1.7,-7.1,-12.6,-16.6,48,48,48,29.94,29.53,5,1,5,0.00